AAL7315 KSEA-KLAX

Flight info

Callsign AAL7315
Flight time 2h 11m
Altitude 35000
Route OZWLD KPOWW SEA152033 JINMO Q7 JAGWA BURGL IRNMN2
Aircraft B738/M-SDE2E3FGHIRWXY/LB1

Departure

Time 2026-04-21 23:33
Airport Seattle–Tacoma International Airport (KSEA)

Arrival

Time 2026-04-22 01:44
Airport Los Angeles International Airport (KLAX)
Time Latitude Longitude Altitude Speed Heading
2026-04-21 23:33 47.38037 -122.79041 23039 ft 389 kts 155°
2026-04-21 23:33 47.35585 -122.77419 23480 ft 392 kts 155°
2026-04-21 23:33 47.33085 -122.75757 23889 ft 394 kts 155°
2026-04-21 23:34 47.30580 -122.74086 24353 ft 395 kts 155°
2026-04-21 23:34 47.28072 -122.72410 24813 ft 395 kts 155°
2026-04-21 23:34 47.25563 -122.70730 25209 ft 397 kts 155°
2026-04-21 23:34 47.23040 -122.69041 25596 ft 399 kts 155°
2026-04-21 23:35 47.20502 -122.67343 25976 ft 400 kts 155°
2026-04-21 23:35 47.17965 -122.65647 26370 ft 402 kts 155°
2026-04-21 23:35 47.15431 -122.63952 27002 ft 397 kts 155°
2026-04-21 23:35 47.12946 -122.62294 27398 ft 398 kts 155°
2026-04-21 23:36 47.10409 -122.60605 27609 ft 403 kts 155°
2026-04-21 23:36 47.07841 -122.58895 27875 ft 406 kts 156°
2026-04-21 23:36 47.05258 -122.57179 28223 ft 407 kts 156°
2026-04-21 23:36 47.02699 -122.55479 28579 ft 407 kts 156°
2026-04-21 23:37 47.00110 -122.53761 28890 ft 409 kts 156°
2026-04-21 23:37 46.97517 -122.52042 29280 ft 408 kts 156°
2026-04-21 23:37 46.94946 -122.50339 29963 ft 401 kts 156°
2026-04-21 23:37 46.92416 -122.48665 30480 ft 396 kts 156°
2026-04-21 23:38 46.89913 -122.47011 30856 ft 395 kts 156°
2026-04-21 23:38 46.87408 -122.45357 31180 ft 395 kts 156°
2026-04-21 23:38 46.84934 -122.43726 31610 ft 393 kts 157°
2026-04-21 23:38 46.82445 -122.42087 32129 ft 389 kts 157°
2026-04-21 23:39 46.80819 -122.41017 32511 ft 385 kts 157°
2026-04-21 23:39 46.78380 -122.39401 32940 ft 384 kts 157°
2026-04-21 23:39 46.75951 -122.37798 33356 ft 382 kts 156°
2026-04-21 23:39 46.73540 -122.36202 33752 ft 380 kts 157°
2026-04-21 23:40 46.71132 -122.34611 34042 ft 380 kts 157°
2026-04-21 23:40 46.68709 -122.33048 34194 ft 382 kts 157°
2026-04-21 23:40 46.66264 -122.31468 34348 ft 384 kts 157°
2026-04-21 23:40 46.63825 -122.29883 34569 ft 384 kts 157°
2026-04-21 23:41 46.61409 -122.28291 34768 ft 385 kts 157°
2026-04-21 23:41 46.58949 -122.26671 34904 ft 388 kts 157°
2026-04-21 23:41 46.53964 -122.23438 34912 ft 393 kts 157°
2026-04-21 23:42 46.49021 -122.20224 34908 ft 389 kts 157°
2026-04-21 23:42 46.44109 -122.17037 34911 ft 385 kts 157°
2026-04-21 23:43 46.39222 -122.13868 34973 ft 383 kts 157°
2026-04-21 23:43 46.34131 -122.11746 34930 ft 386 kts 168°
2026-04-21 23:44 46.28762 -122.10444 34871 ft 395 kts 171°
2026-04-21 23:44 46.23354 -122.09302 34914 ft 398 kts 169°
2026-04-21 23:45 46.15221 -122.07277 34892 ft 389 kts 169°
2026-04-21 23:46 46.09885 -122.05988 34927 ft 388 kts 169°
2026-04-21 23:46 46.04589 -122.04723 34917 ft 388 kts 169°
2026-04-21 23:47 45.99266 -122.03456 34912 ft 388 kts 169°
2026-04-21 23:47 45.93935 -122.02205 34924 ft 387 kts 169°
2026-04-21 23:48 45.88599 -122.00941 34912 ft 390 kts 169°
2026-04-21 23:48 45.83253 -121.99674 34918 ft 391 kts 169°
2026-04-21 23:49 45.77859 -121.98395 34937 ft 393 kts 169°
2026-04-21 23:49 45.72469 -121.97123 34917 ft 395 kts 169°
2026-04-21 23:50 45.67070 -121.95854 34920 ft 390 kts 169°
2026-04-21 23:50 45.61689 -121.94587 34956 ft 394 kts 169°
2026-04-21 23:51 45.56237 -121.93327 34916 ft 401 kts 170°
2026-04-21 23:51 45.50697 -121.92048 34939 ft 405 kts 169°
2026-04-21 23:52 45.45120 -121.90743 34976 ft 409 kts 170°
2026-04-21 23:52 45.39465 -121.89408 34937 ft 413 kts 170°
2026-04-21 23:53 45.33773 -121.88097 34920 ft 413 kts 170°
2026-04-21 23:53 45.28142 -121.86795 34927 ft 410 kts 170°
2026-04-21 23:54 45.22551 -121.85492 34896 ft 405 kts 170°
2026-04-21 23:54 45.17006 -121.84219 34931 ft 401 kts 170°
2026-04-21 23:55 45.11484 -121.82939 34922 ft 402 kts 170°
2026-04-21 23:55 45.05960 -121.81666 34928 ft 402 kts 170°
2026-04-21 23:56 45.00438 -121.80400 34923 ft 403 kts 170°
2026-04-21 23:56 44.94916 -121.79136 34905 ft 405 kts 170°
2026-04-21 23:57 44.89352 -121.77868 34924 ft 405 kts 170°
2026-04-21 23:57 44.83773 -121.76593 34911 ft 406 kts 170°
2026-04-21 23:58 44.78177 -121.75318 34897 ft 407 kts 170°
2026-04-21 23:58 44.72611 -121.74053 34901 ft 407 kts 170°
2026-04-21 23:59 44.67003 -121.72782 34908 ft 408 kts 170°
2026-04-21 23:59 44.61385 -121.71510 34880 ft 409 kts 170°
2026-04-22 00:00 44.55744 -121.70235 34920 ft 411 kts 171°
2026-04-22 00:00 44.50079 -121.68959 34914 ft 418 kts 171°
2026-04-22 00:01 44.44309 -121.67661 34880 ft 418 kts 171°
2026-04-22 00:01 44.38606 -121.66388 34894 ft 414 kts 171°
2026-04-22 00:02 44.32918 -121.65106 34911 ft 413 kts 171°
2026-04-22 00:02 44.27247 -121.63799 34892 ft 412 kts 171°
2026-04-22 00:03 44.21570 -121.62476 34901 ft 412 kts 170°
2026-04-22 00:03 44.15932 -121.61165 34899 ft 412 kts 171°
2026-04-22 00:04 44.10255 -121.59851 34891 ft 414 kts 171°
2026-04-22 00:04 44.04584 -121.58541 34899 ft 416 kts 171°
2026-04-22 00:05 43.98846 -121.57220 34892 ft 418 kts 171°
2026-04-22 00:05 43.93104 -121.55900 34877 ft 419 kts 171°
2026-04-22 00:06 43.87348 -121.54579 34893 ft 419 kts 171°
2026-04-22 00:06 43.81596 -121.53262 34877 ft 415 kts 171°
2026-04-22 00:07 43.75950 -121.51971 34876 ft 412 kts 171°
2026-04-22 00:07 43.70306 -121.50683 34907 ft 410 kts 171°
2026-04-22 00:08 43.64635 -121.49392 34889 ft 416 kts 171°
2026-04-22 00:08 43.58905 -121.48090 34869 ft 416 kts 171°
2026-04-22 00:09 43.53190 -121.46794 34882 ft 415 kts 171°
2026-04-22 00:09 43.47485 -121.45502 34868 ft 415 kts 171°
2026-04-22 00:10 43.41823 -121.44223 34863 ft 415 kts 171°
2026-04-22 00:10 43.36110 -121.42934 34863 ft 415 kts 171°
2026-04-22 00:11 43.30408 -121.41651 34855 ft 415 kts 171°
2026-04-22 00:11 43.24712 -121.40371 34844 ft 416 kts 171°
2026-04-22 00:12 43.19024 -121.39095 34858 ft 417 kts 171°
2026-04-22 00:12 43.13290 -121.37812 34860 ft 418 kts 171°
2026-04-22 00:13 43.07527 -121.36524 34835 ft 418 kts 171°
2026-04-22 00:13 43.01780 -121.35242 34839 ft 418 kts 171°
2026-04-22 00:14 42.96057 -121.33969 34846 ft 418 kts 171°
2026-04-22 00:14 42.90312 -121.32692 34843 ft 418 kts 171°
2026-04-22 00:15 42.84551 -121.31415 34850 ft 419 kts 171°
2026-04-22 00:15 42.78779 -121.30140 34849 ft 421 kts 171°
2026-04-22 00:16 42.73012 -121.28869 34849 ft 422 kts 171°
2026-04-22 00:16 42.67191 -121.27587 34827 ft 423 kts 171°
2026-04-22 00:17 42.61409 -121.26316 34835 ft 423 kts 171°
2026-04-22 00:17 42.55595 -121.25045 34832 ft 423 kts 171°
2026-04-22 00:18 42.49817 -121.23776 34842 ft 423 kts 171°
2026-04-22 00:18 42.43990 -121.22501 34853 ft 423 kts 171°
2026-04-22 00:19 42.38152 -121.21226 34843 ft 425 kts 171°
2026-04-22 00:19 42.32326 -121.19958 34848 ft 427 kts 171°
2026-04-22 00:20 42.26447 -121.18680 34845 ft 428 kts 171°
2026-04-22 00:20 42.20559 -121.17402 34846 ft 428 kts 171°
2026-04-22 00:21 42.14668 -121.16126 34845 ft 429 kts 171°
2026-04-22 00:21 42.08769 -121.14851 34841 ft 429 kts 171°
2026-04-22 00:22 42.02905 -121.13586 34848 ft 429 kts 172°
2026-04-22 00:22 41.96981 -121.12311 34853 ft 431 kts 172°
2026-04-22 00:23 41.91051 -121.11036 34852 ft 432 kts 172°
2026-04-22 00:23 41.85102 -121.09760 34855 ft 433 kts 172°
2026-04-22 00:24 41.79178 -121.08491 34857 ft 434 kts 172°
2026-04-22 00:24 41.73217 -121.07217 34861 ft 434 kts 172°
2026-04-22 00:25 41.67260 -121.05946 34873 ft 433 kts 172°
2026-04-22 00:25 41.61308 -121.04679 34883 ft 434 kts 172°
2026-04-22 00:26 41.55319 -121.03406 34897 ft 435 kts 172°
2026-04-22 00:26 41.50341 -121.02350 34903 ft 436 kts 172°
2026-04-22 00:27 41.43346 -121.00869 34898 ft 437 kts 172°
2026-04-22 00:27 41.37336 -120.99598 34910 ft 437 kts 172°
2026-04-22 00:28 41.32338 -120.98544 34900 ft 437 kts 172°
2026-04-22 00:28 41.26322 -120.97276 34903 ft 437 kts 172°
2026-04-22 00:29 41.20303 -120.96011 34911 ft 439 kts 172°
2026-04-22 00:29 41.14271 -120.94745 34918 ft 439 kts 172°
2026-04-22 00:30 41.08236 -120.93481 34914 ft 439 kts 172°
2026-04-22 00:30 41.02234 -120.92225 34920 ft 439 kts 172°
2026-04-22 00:31 40.96174 -120.91323 34923 ft 438 kts 177°
2026-04-22 00:31 40.90081 -120.90882 34924 ft 438 kts 178°
2026-04-22 00:32 40.83990 -120.90466 34924 ft 438 kts 178°
2026-04-22 00:32 40.77936 -120.90014 34923 ft 438 kts 177°
2026-04-22 00:33 40.71836 -120.89534 34927 ft 439 kts 177°
2026-04-22 00:33 40.65728 -120.89046 34914 ft 439 kts 177°
2026-04-22 00:34 40.59628 -120.88560 34923 ft 439 kts 178°
2026-04-22 00:34 40.53539 -120.88076 34931 ft 440 kts 178°
2026-04-22 00:35 40.47413 -120.87591 34934 ft 441 kts 178°
2026-04-22 00:35 40.41275 -120.87106 34938 ft 441 kts 178°
2026-04-22 00:36 40.35173 -120.86624 34939 ft 441 kts 178°
2026-04-22 00:36 40.29028 -120.86141 34944 ft 441 kts 178°
2026-04-22 00:37 40.22881 -120.85657 34939 ft 442 kts 178°
2026-04-22 00:37 40.16776 -120.85177 34938 ft 443 kts 178°
2026-04-22 00:38 40.10625 -120.84695 34954 ft 443 kts 178°
2026-04-22 00:38 40.04454 -120.84213 34947 ft 444 kts 178°
2026-04-22 00:39 39.98277 -120.83731 34960 ft 445 kts 178°
2026-04-22 00:39 39.92076 -120.83248 34966 ft 446 kts 178°
2026-04-22 00:40 39.85871 -120.82765 34957 ft 447 kts 178°
2026-04-22 00:40 39.79690 -120.82285 34974 ft 448 kts 178°
2026-04-22 00:41 39.73455 -120.81803 34986 ft 448 kts 178°
2026-04-22 00:41 39.67223 -120.81322 34976 ft 449 kts 179°
2026-04-22 00:42 39.61017 -120.80841 34992 ft 450 kts 179°
2026-04-22 00:42 39.54751 -120.80357 34995 ft 451 kts 179°
2026-04-22 00:43 39.48471 -120.79873 34982 ft 452 kts 180°
2026-04-22 00:43 39.42171 -120.79390 34985 ft 453 kts 179°
2026-04-22 00:44 39.35909 -120.78911 35013 ft 453 kts 179°
2026-04-22 00:44 39.29601 -120.78428 34984 ft 455 kts 180°
2026-04-22 00:45 39.23248 -120.77942 35002 ft 458 kts 180°
2026-04-22 00:45 39.16866 -120.77456 35011 ft 460 kts 180°
2026-04-22 00:46 39.10488 -120.76973 35010 ft 462 kts 180°
2026-04-22 00:46 39.04046 -120.76484 35017 ft 463 kts 180°
2026-04-22 00:47 38.97603 -120.75992 35015 ft 464 kts 180°
2026-04-22 00:47 38.91153 -120.75502 35020 ft 464 kts 181°
2026-04-22 00:48 38.84750 -120.75018 35041 ft 463 kts 181°
2026-04-22 00:48 38.78315 -120.74534 35047 ft 463 kts 181°
2026-04-22 00:49 38.71889 -120.74049 35030 ft 462 kts 182°
2026-04-22 00:49 38.65454 -120.73565 35032 ft 461 kts 182°
2026-04-22 00:50 38.59096 -120.73088 35045 ft 461 kts 182°
2026-04-22 00:50 38.52686 -120.72609 35057 ft 460 kts 182°
2026-04-22 00:51 38.46296 -120.72131 35060 ft 460 kts 182°
2026-04-22 00:51 38.39896 -120.71654 35061 ft 460 kts 182°
2026-04-22 00:52 38.33537 -120.71181 35045 ft 460 kts 182°
2026-04-22 00:52 38.27149 -120.70705 35058 ft 459 kts 182°
2026-04-22 00:53 38.20763 -120.70231 35074 ft 459 kts 182°
2026-04-22 00:53 38.14380 -120.69758 35051 ft 459 kts 182°
2026-04-22 00:54 38.08007 -120.69286 35064 ft 459 kts 183°
2026-04-22 00:54 38.01631 -120.68805 35059 ft 459 kts 183°
2026-04-22 00:55 37.95295 -120.68346 35041 ft 459 kts 183°
2026-04-22 00:55 37.85733 -120.67645 35029 ft 459 kts 184°
2026-04-22 00:56 37.79344 -120.67177 35032 ft 459 kts 184°
2026-04-22 00:56 37.72957 -120.66709 34998 ft 459 kts 184°
2026-04-22 00:57 37.66618 -120.66245 35024 ft 459 kts 184°
2026-04-22 00:57 37.60237 -120.65780 35039 ft 459 kts 184°
2026-04-22 00:58 37.53860 -120.65315 35010 ft 459 kts 185°
2026-04-22 00:58 37.47481 -120.64851 35031 ft 459 kts 185°
2026-04-22 00:59 37.41087 -120.64386 35042 ft 459 kts 185°
2026-04-22 00:59 37.34703 -120.63922 35043 ft 460 kts 184°
2026-04-22 01:00 37.28293 -120.62434 35057 ft 474 kts 174°
2026-04-22 01:00 37.21910 -120.60286 35053 ft 476 kts 174°
2026-04-22 01:01 37.15542 -120.58148 35053 ft 477 kts 174°
2026-04-22 01:01 37.09122 -120.56045 35043 ft 476 kts 175°
2026-04-22 01:02 37.02691 -120.53963 35048 ft 477 kts 175°
2026-04-22 01:02 36.96299 -120.51902 35051 ft 477 kts 175°
2026-04-22 01:03 36.89838 -120.49820 35042 ft 476 kts 176°
2026-04-22 01:03 36.83451 -120.47765 35044 ft 476 kts 176°
2026-04-22 01:04 36.77032 -120.45703 35049 ft 476 kts 176°
2026-04-22 01:04 36.70629 -120.43648 35046 ft 474 kts 176°
2026-04-22 01:05 36.64211 -120.41595 35045 ft 475 kts 176°
2026-04-22 01:05 36.57845 -120.39562 35075 ft 474 kts 176°
2026-04-22 01:06 36.51465 -120.37525 35053 ft 472 kts 176°
2026-04-22 01:06 36.45088 -120.35492 35048 ft 472 kts 176°
2026-04-22 01:07 36.38773 -120.33485 35047 ft 471 kts 176°
2026-04-22 01:07 36.32428 -120.31471 35044 ft 470 kts 176°
2026-04-22 01:08 36.26082 -120.29461 35057 ft 470 kts 176°
2026-04-22 01:08 36.19740 -120.27456 35057 ft 470 kts 176°
2026-04-22 01:09 36.13392 -120.25451 35045 ft 470 kts 176°
2026-04-22 01:09 36.07041 -120.23449 35061 ft 471 kts 176°
2026-04-22 01:10 36.00682 -120.21449 35067 ft 472 kts 176°
2026-04-22 01:10 35.94319 -120.19451 35060 ft 472 kts 176°
2026-04-22 01:11 35.87940 -120.17445 35078 ft 472 kts 176°
2026-04-22 01:11 35.81600 -120.15479 35072 ft 471 kts 177°
2026-04-22 01:12 35.75223 -120.13498 35064 ft 473 kts 175°
2026-04-22 01:12 35.68845 -120.11466 35074 ft 473 kts 175°
2026-04-22 01:13 35.65679 -120.10223 35068 ft 487 kts 164°
2026-04-22 01:13 35.62679 -120.08165 35108 ft 495 kts 158°
2026-04-22 01:13 35.56881 -120.03626 35047 ft 497 kts 156°
2026-04-22 01:14 35.51066 -119.99067 35079 ft 494 kts 157°
2026-04-22 01:14 35.46200 -119.95383 35083 ft 494 kts 158°
2026-04-22 01:15 35.40329 -119.90993 35036 ft 493 kts 158°
2026-04-22 01:15 35.33540 -119.85907 35067 ft 488 kts 158°
2026-04-22 01:16 35.31618 -119.84467 34571 ft 492 kts 158°
2026-04-22 01:16 35.28676 -119.82264 33427 ft 495 kts 157°
2026-04-22 01:16 35.25837 -119.79860 32722 ft 490 kts 152°
2026-04-22 01:16 35.23183 -119.77354 32455 ft 472 kts 151°
2026-04-22 01:17 35.20645 -119.74878 32115 ft 468 kts 150°
2026-04-22 01:17 35.18098 -119.72410 31667 ft 464 kts 151°
2026-04-22 01:17 35.15574 -119.69997 31223 ft 460 kts 152°
2026-04-22 01:17 35.13071 -119.67638 30753 ft 457 kts 152°
2026-04-22 01:18 35.10554 -119.65287 30302 ft 454 kts 152°
2026-04-22 01:18 35.08043 -119.62952 29786 ft 451 kts 152°
2026-04-22 01:18 35.05547 -119.60635 29256 ft 448 kts 152°
2026-04-22 01:18 35.03079 -119.58344 28735 ft 444 kts 152°
2026-04-22 01:19 35.00637 -119.56076 28295 ft 439 kts 152°
2026-04-22 01:19 34.98213 -119.53827 27823 ft 436 kts 152°
2026-04-22 01:19 34.95801 -119.51599 27343 ft 433 kts 153°
2026-04-22 01:19 34.93445 -119.49409 26891 ft 430 kts 152°
2026-04-22 01:20 34.91063 -119.47202 26422 ft 427 kts 153°
2026-04-22 01:20 34.88685 -119.45048 25964 ft 424 kts 153°
2026-04-22 01:20 34.86315 -119.42935 25507 ft 421 kts 153°
2026-04-22 01:20 34.83951 -119.40834 25047 ft 419 kts 153°
2026-04-22 01:21 34.81607 -119.38747 24607 ft 416 kts 153°
2026-04-22 01:21 34.79277 -119.36667 24149 ft 415 kts 153°
2026-04-22 01:21 34.76944 -119.34579 23675 ft 415 kts 153°
2026-04-22 01:21 34.74624 -119.32510 23140 ft 414 kts 153°
2026-04-22 01:22 34.72297 -119.30467 22656 ft 411 kts 154°
2026-04-22 01:22 34.69980 -119.28450 22186 ft 407 kts 154°
2026-04-22 01:22 34.67682 -119.26450 21724 ft 404 kts 154°
2026-04-22 01:22 34.65430 -119.24517 21291 ft 400 kts 154°
2026-04-22 01:23 34.63185 -119.22529 20884 ft 397 kts 154°
2026-04-22 01:23 34.60952 -119.20588 20448 ft 394 kts 154°
2026-04-22 01:23 34.58712 -119.18684 19979 ft 391 kts 156°
2026-04-22 01:23 34.56477 -119.16817 19572 ft 390 kts 154°
2026-04-22 01:24 34.54282 -119.14877 19122 ft 389 kts 153°
2026-04-22 01:24 34.52101 -119.12922 18679 ft 389 kts 153°
2026-04-22 01:24 34.49923 -119.10968 18177 ft 389 kts 152°
2026-04-22 01:24 34.47770 -119.08960 17683 ft 389 kts 151°
2026-04-22 01:25 34.45603 -119.07026 17203 ft 385 kts 153°
2026-04-22 01:25 34.43447 -119.05170 16763 ft 382 kts 153°
2026-04-22 01:25 34.41285 -119.03296 16286 ft 380 kts 154°
2026-04-22 01:25 34.39122 -119.01476 15846 ft 377 kts 153°
2026-04-22 01:26 34.36986 -118.99652 15408 ft 375 kts 153°
2026-04-22 01:26 34.34880 -118.97833 14979 ft 368 kts 153°
2026-04-22 01:26 34.32837 -118.96022 14563 ft 359 kts 152°
2026-04-22 01:26 34.30838 -118.94200 14124 ft 358 kts 150°
2026-04-22 01:27 34.28896 -118.92424 13700 ft 349 kts 150°
2026-04-22 01:27 34.26973 -118.90672 13274 ft 341 kts 150°
2026-04-22 01:27 34.25084 -118.88957 12851 ft 338 kts 150°
2026-04-22 01:27 34.23216 -118.87246 12471 ft 336 kts 150°
2026-04-22 01:28 34.21387 -118.85561 12347 ft 325 kts 150°
2026-04-22 01:28 34.19614 -118.83926 12190 ft 316 kts 150°
2026-04-22 01:28 34.17879 -118.82332 12032 ft 308 kts 150°
2026-04-22 01:28 34.16220 -118.80771 11883 ft 300 kts 149°
2026-04-22 01:29 34.14610 -118.79122 11579 ft 305 kts 146°
2026-04-22 01:29 34.13036 -118.77390 11269 ft 307 kts 144°
2026-04-22 01:29 34.11477 -118.75612 10944 ft 308 kts 143°
2026-04-22 01:29 34.09893 -118.73895 10661 ft 306 kts 145°
2026-04-22 01:30 34.08304 -118.72177 10363 ft 305 kts 144°
2026-04-22 01:30 34.06744 -118.70484 10079 ft 305 kts 144°
2026-04-22 01:30 34.05170 -118.68766 9714 ft 304 kts 143°
2026-04-22 01:30 34.03654 -118.66988 9399 ft 307 kts 133°
2026-04-22 01:31 34.02762 -118.64624 9084 ft 312 kts 105°
2026-04-22 01:31 34.02485 -118.62066 8778 ft 304 kts 99°
2026-04-22 01:31 34.02284 -118.59555 8458 ft 295 kts 99°
2026-04-22 01:31 34.02080 -118.57151 8158 ft 289 kts 99°
2026-04-22 01:32 34.01865 -118.54761 7995 ft 286 kts 99°
2026-04-22 01:32 34.01645 -118.52375 7679 ft 285 kts 99°
2026-04-22 01:32 34.01424 -118.50010 7447 ft 282 kts 99°
2026-04-22 01:32 34.01204 -118.47677 7197 ft 276 kts 99°
2026-04-22 01:33 34.01046 -118.45414 6950 ft 268 kts 88°
2026-04-22 01:33 34.01379 -118.43241 6748 ft 259 kts 77°
2026-04-22 01:33 34.01778 -118.41157 6523 ft 251 kts 78°
2026-04-22 01:33 34.02138 -118.39148 6315 ft 246 kts 79°
2026-04-22 01:34 34.02490 -118.37138 6117 ft 244 kts 79°
2026-04-22 01:34 34.02815 -118.35140 6011 ft 239 kts 86°
2026-04-22 01:34 34.03020 -118.33197 6013 ft 225 kts 85°
2026-04-22 01:34 34.03201 -118.31337 5742 ft 223 kts 86°
2026-04-22 01:35 34.03374 -118.29498 5394 ft 222 kts 87°
2026-04-22 01:35 34.03525 -118.27654 5053 ft 220 kts 88°
2026-04-22 01:35 34.03671 -118.25827 4751 ft 216 kts 86°
2026-04-22 01:35 34.03816 -118.24053 4426 ft 213 kts 85°
2026-04-22 01:36 34.03969 -118.22238 4025 ft 217 kts 85°
2026-04-22 01:36 34.04178 -118.20459 3689 ft 218 kts 79°
2026-04-22 01:36 34.04433 -118.18681 3427 ft 215 kts 80°
2026-04-22 01:36 34.04688 -118.16906 3107 ft 212 kts 78°
2026-04-22 01:37 34.04955 -118.15141 2782 ft 213 kts 79°
2026-04-22 01:37 34.05173 -118.13383 2615 ft 212 kts 83°
2026-04-22 01:37 34.04928 -118.11668 2592 ft 207 kts 125°
2026-04-22 01:37 34.03825 -118.10674 2600 ft 199 kts 170°
2026-04-22 01:38 34.02452 -118.10333 2567 ft 202 kts 171°
2026-04-22 01:38 34.01100 -118.09989 2587 ft 201 kts 180°
2026-04-22 01:38 33.99838 -118.10421 2602 ft 188 kts 224°
2026-04-22 01:38 33.98948 -118.11574 2603 ft 188 kts 230°
2026-04-22 01:39 33.98071 -118.12737 2586 ft 187 kts 230°
2026-04-22 01:39 33.97195 -118.13888 2570 ft 185 kts 231°
2026-04-22 01:39 33.96342 -118.15043 2575 ft 182 kts 238°
2026-04-22 01:39 33.96020 -118.16452 2596 ft 174 kts 271°
2026-04-22 01:40 33.95938 -118.17883 2590 ft 168 kts 257°
2026-04-22 01:40 33.95709 -118.19250 2581 ft 163 kts 262°
2026-04-22 01:40 33.95560 -118.20524 2588 ft 148 kts 263°
2026-04-22 01:40 33.95432 -118.21703 2608 ft 140 kts 264°
2026-04-22 01:41 33.95308 -118.22947 2579 ft 155 kts 262°
2026-04-22 01:41 33.95177 -118.24236 2434 ft 154 kts 263°
2026-04-22 01:41 33.95045 -118.25514 2232 ft 152 kts 263°
2026-04-22 01:41 33.94917 -118.26765 2028 ft 149 kts 264°
2026-04-22 01:42 33.94793 -118.27965 1836 ft 140 kts 263°
2026-04-22 01:42 33.94676 -118.29112 1673 ft 139 kts 263°
2026-04-22 01:42 33.94556 -118.30266 1472 ft 138 kts 262°
2026-04-22 01:42 33.94439 -118.31404 1296 ft 133 kts 263°
2026-04-22 01:43 33.94321 -118.32560 1098 ft 143 kts 262°
2026-04-22 01:43 33.94199 -118.33746 872 ft 142 kts 261°
2026-04-22 01:43 33.94077 -118.34901 731 ft 135 kts 262°
2026-04-22 01:43 33.93962 -118.36055 493 ft 143 kts 262°
2026-04-22 01:44 33.93848 -118.37216 305 ft 133 kts 262°
2026-04-22 01:44 33.93740 -118.38292 165 ft 130 kts 261°
2026-04-22 01:44 33.93631 -118.39297 125 ft 105 kts 263°
2026-04-22 01:44 33.93579 -118.39831 121 ft 34 kts 264°
2026-04-22 01:45 33.93564 -118.40066 125 ft 25 kts 271°
2026-04-22 01:45 33.93587 -118.40246 123 ft 16 kts 289°
2026-04-22 01:45 33.93613 -118.40325 123 ft 0 kts 290°
2026-04-22 01:46 33.93613 -118.40326 123 ft 1 kts 290°
2026-04-22 01:46 33.93621 -118.40357 123 ft 7 kts 283°
2026-04-22 01:46 33.93624 -118.40443 125 ft 13 kts 265°
2026-04-22 01:46 33.93613 -118.40561 124 ft 15 kts 264°
2026-04-22 01:47 33.93600 -118.40695 125 ft 17 kts 263°
2026-04-22 01:47 33.93606 -118.40835 124 ft 16 kts 289°
2026-04-22 01:47 33.93697 -118.40896 123 ft 14 kts 358°
2026-04-22 01:47 33.93773 -118.40912 123 ft 12 kts 350°
2026-04-22 01:48 33.93858 -118.40916 122 ft 9 kts 39°
2026-04-22 01:48 33.93876 -118.40833 125 ft 12 kts 83°
2026-04-22 01:48 33.93888 -118.40716 124 ft 16 kts 83°
2026-04-22 01:48 33.93901 -118.40595 124 ft 11 kts 82°
2026-04-22 01:49 33.93960 -118.40541 122 ft 13 kts 353°
2026-04-22 01:49 33.94012 -118.40542 122 ft 6 kts 35°
2026-04-22 01:49 33.94021 -118.40514 125 ft 1 kts 75°
2026-04-22 01:49 33.94023 -118.40502 125 ft 1 kts 80°
2026-04-22 01:50 33.94024 -118.40493 125 ft 0 kts 81°